STARLINK-5468, 54777

Orbit data source: Space-Track

STARLINK-5468, 54777 is a payload satellite owned by SpaceX/Seattle (US) in LEO that was launched on Sat, 17 Dec 2022 UTC via an FALCON 9 launch vehicle from the Air Force Eastern Test Range (AFETR). Payload-class satellites include a variety of spacecraft equipped with specific instruments for various scientific and technological missions. These include communications satellites like Starlink; space stations such as the ISS; scientific satellites like the Hubble; Earth observation satellites from companies like Planet Labs, Umbra, and HawkEye 360; GPS; miniature CubeSats for education and research; and military/defense satellites.

Loading next visibility...
Identifier
54777, 2022-175V
Orbit
LEO
Country
Flag of USUS
Related business
Manufacturer
SpaceX/Seattle
Mission
Operational Commercial Communications
Bus & Motor
STARLINK, Unknown motor
Mass
305 kg wet, ~290 kg dry
Launch date (UTC)
2022-12-17 (4 years ago)
Launch vehicle
FALCON 9
Launch site
Air Force Eastern Test Range (AFETR)
Object type
Payload
Rocket body
Debris
Shape & HBR
Box + 1 Pan, 10.1 m
Radar Cross Section
13.562 m², Large (>1 m²)

Expand to show TLE details & history
Last TLE update: 3 days ago

TLE from 3 days ago
0 STARLINK-5468
1 54777U 22175V   26170.64479151 -.00000395  00000-0 -67233-5 0  9995
2 54777  53.1596 306.1117 0001225  91.0744 269.0387 15.08834299195318
Epoch: 2026-06-19T15:28Z
TLE epoch observation values (Epoch: 2026-06-19T15:28:29.986Z)
Latitude
-0.00008°
Longitude
166.1159°
Altitude
540.666 km
Speed
7.593 km/s
True Right ascension
20h 24m 26s
True Declination
0° 00' 00"
Sunlit
Object was in full shadow at epoch
Visualization orbit readout
Latitude
Unknown
Longitude
Unknown
Altitude
Unknown
Speed
Unknown
Apparent Right ascension
Unknown
Apparent Declination
Unknown
Sunlit
N/A
Visualization observer readout
Local Sidereal Time
21:33:12
Azimuth
Unknown
Elevation
Unknown
Doppler factor
Unknown
Orbital elements
Apogee altitude
540.862 km
Perigee altitude
539.168 km
Semi-major axis
6,918.152 km
Eccentricity
0.00012
Inclination
53.1596°
RAAN
306.1117°
Arg. of periapsis
91.0744°
True anomaly
269.02466°
Mean anomaly
269.0387°
Eccentric anomaly
269.03168°
Mean motion
3.77188 °/min
Orbital period
95.44 mins
BSTAR
-0.0000067233
Loading maneuver chart data...
Computing Atmospheric mass density...
Loading historical data...
Loading historical data...
Loading historical data...
Loading historical data...
Loading historical data...
Loading historical data...
Loading historical data...

Documentation

Showing up to 5 results
|